Meteo pe oră la Bolshie Setki

Astăzi, 10 Mai, Luni

Timp Temperatura Precipitaţii Vânt Presiune Umiditate
00:00 +2°C° 0 mm 2 m/s 754 mmHg 74%
01:00 +2°C° 0 mm 2 m/s 754 mmHg 72%
02:00 +1°C° 0 mm 2 m/s 755 mmHg 71%
03:00 +2°C° 0 mm 2 m/s 755 mmHg 69%
04:00 +3°C° 0 mm 1 m/s 756 mmHg 67%
05:00 +3°C° 0 mm 1 m/s 756 mmHg 65%
06:00 +6°C° 0 mm 1 m/s 757 mmHg 57%
07:00 +8°C° 0 mm 1 m/s 757 mmHg 49%
08:00 +10°C° 0 mm 1 m/s 757 mmHg 42%
09:00 +11°C° 0 mm 1 m/s 757 mmHg 39%
10:00 +13°C° 0 mm 1 m/s 758 mmHg 37%
11:00 +14°C° 0 mm 1 m/s 758 mmHg 35%
12:00 +15°C° 0 mm 1 m/s 757 mmHg 35%
13:00 +15°C° 0 mm 1 m/s 757 mmHg 34%
14:00 +16°C° 0 mm 1 m/s 757 mmHg 34%
15:00 +15°C° 0 mm 1 m/s 757 mmHg 37%
16:00 +15°C° 0 mm 1 m/s 757 mmHg 40%
17:00 +15°C° 0 mm 1 m/s 757 mmHg 43%
18:00 +13°C° 0 mm 1 m/s 758 mmHg 50%
19:00 +11°C° 0 mm 1 m/s 758 mmHg 57%
20:00 +9°C° 0 mm 1 m/s 758 mmHg 64%
21:00 +8°C° 0 mm 1 m/s 758 mmHg 65%
22:00 +8°C° 0 mm 1 m/s 758 mmHg 66%
23:00 +7°C° 0 mm 1 m/s 758 mmHg 67%

Mâine, 11 Mai, Marţi

Timp Temperatura Precipitaţii Vânt Presiune Umiditate
00:00 +7°C° 0 mm 1 m/s 759 mmHg 68%
01:00 +7°C° 0 mm 1 m/s 759 mmHg 69%
02:00 +6°C° 0 mm 1 m/s 759 mmHg 69%
03:00 +7°C° 0 mm 1 m/s 759 mmHg 69%
04:00 +7°C° 0 mm 1 m/s 759 mmHg 69%
05:00 +8°C° 0 mm 1 m/s 759 mmHg 68%
06:00 +10°C° 0 mm 1 m/s 759 mmHg 62%
07:00 +12°C° 0 mm 1 m/s 760 mmHg 55%
08:00 +14°C° 0 mm 1 m/s 760 mmHg 49%
09:00 +15°C° 0 mm 2 m/s 759 mmHg 46%
10:00 +16°C° 0 mm 2 m/s 759 mmHg 44%
11:00 +17°C° 0 mm 3 m/s 759 mmHg 42%
12:00 +18°C° 0 mm 3 m/s 759 mmHg 42%
13:00 +18°C° 0 mm 3 m/s 759 mmHg 43%
14:00 +19°C° 0 mm 3 m/s 758 mmHg 43%
15:00 +18°C° 0 mm 3 m/s 758 mmHg 47%
16:00 +18°C° 0 mm 3 m/s 758 mmHg 51%
17:00 +18°C° 0 mm 2 m/s 758 mmHg 55%
18:00 +16°C° 0 mm 2 m/s 758 mmHg 63%
19:00 +14°C° 0 mm 2 m/s 758 mmHg 71%
20:00 +12°C° 0 mm 2 m/s 758 mmHg 79%
21:00 +10°C° 0 mm 2 m/s 758 mmHg 81%
22:00 +10°C° 0 mm 2 m/s 758 mmHg 82%
23:00 +9°C° 0 mm 2 m/s 758 mmHg 83%

Poimâine, 12 Mai, Miercuri

Timp Temperatura Precipitaţii Vânt Presiune Umiditate
00:00 +9°C° 0 mm 2 m/s 758 mmHg 85%
01:00 +9°C° 0 mm 2 m/s 758 mmHg 87%
02:00 +9°C° 0 mm 2 m/s 758 mmHg 88%
03:00 +9°C° 0 mm 2 m/s 758 mmHg 88%
04:00 +10°C° 0 mm 2 m/s 758 mmHg 88%
05:00 +10°C° 0 mm 2 m/s 758 mmHg 87%
06:00 +13°C° 0 mm 2 m/s 758 mmHg 81%
07:00 +15°C° 0 mm 2 m/s 758 mmHg 75%
08:00 +17°C° 0 mm 3 m/s 758 mmHg 68%
09:00 +19°C° 0 mm 3 m/s 757 mmHg 65%
10:00 +20°C° 0 mm 4 m/s 757 mmHg 61%
11:00 +22°C° 0 mm 4 m/s 756 mmHg 57%
12:00 +22°C° 0.1 mm 5 m/s 756 mmHg 57%
13:00 +22°C° 0.1 mm 5 m/s 755 mmHg 57%
14:00 +23°C° 0.1 mm 5 m/s 755 mmHg 58%
15:00 +22°C° 0.5 mm 5 m/s 754 mmHg 63%
16:00 +20°C° 0.5 mm 5 m/s 754 mmHg 68%
17:00 +19°C° 0.5 mm 5 m/s 754 mmHg 73%
18:00 +17°C° 0.2 mm 5 m/s 753 mmHg 76%
19:00 +16°C° 0.2 mm 5 m/s 753 mmHg 78%
20:00 +15°C° 0.2 mm 5 m/s 753 mmHg 80%
21:00 +14°C° 0 mm 4 m/s 754 mmHg 84%
22:00 +13°C° 0 mm 4 m/s 754 mmHg 87%
23:00 +13°C° 0 mm 3 m/s 754 mmHg 90%

13 Mai, Joi

Timp Temperatura Precipitaţii Vânt Presiune Umiditate
00:00 +12°C° 0 mm 3 m/s 754 mmHg 92%
01:00 +10°C° 0 mm 2 m/s 754 mmHg 94%
02:00 +10°C° 0 mm 1 m/s 754 mmHg 97%
03:00 +11°C° 0 mm 1 m/s 754 mmHg 95%
04:00 +11°C° 0 mm 1 m/s 754 mmHg 94%
05:00 +11°C° 0 mm 1 m/s 754 mmHg 93%
06:00 +13°C° 0 mm 2 m/s 753 mmHg 87%
07:00 +14°C° 0 mm 3 m/s 753 mmHg 82%
08:00 +17°C° 0 mm 4 m/s 752 mmHg 77%
09:00 +15°C° 1 mm 4 m/s 752 mmHg 81%
10:00 +15°C° 1 mm 4 m/s 752 mmHg 86%
11:00 +14°C° 1 mm 5 m/s 752 mmHg 91%
12:00 +15°C° 0.6 mm 4 m/s 752 mmHg 89%
13:00 +15°C° 0.6 mm 4 m/s 752 mmHg 87%
14:00 +15°C° 0.6 mm 4 m/s 751 mmHg 86%
15:00 +17°C° 0.2 mm 4 m/s 751 mmHg 84%
16:00 +17°C° 0.2 mm 3 m/s 751 mmHg 83%
17:00 +17°C° 0.2 mm 3 m/s 751 mmHg 81%
18:00 +16°C° 0 mm 3 m/s 751 mmHg 86%
19:00 +15°C° 0 mm 2 m/s 751 mmHg 90%
20:00 +14°C° 0 mm 2 m/s 751 mmHg 95%
21:00 +13°C° 0 mm 2 m/s 751 mmHg 95%
22:00 +13°C° 0 mm 2 m/s 751 mmHg 96%
23:00 +12°C° 0 mm 2 m/s 751 mmHg 96%

14 Mai, Vineri

Timp Temperatura Precipitaţii Vânt Presiune Umiditate
00:00 +12°C° 0 mm 2 m/s 752 mmHg 96%
01:00 +11°C° 0 mm 1 m/s 752 mmHg 96%
02:00 +11°C° 0 mm 1 m/s 752 mmHg 96%
03:00 +12°C° 0 mm 1 m/s 752 mmHg 95%
04:00 +12°C° 0 mm 1 m/s 752 mmHg 95%
05:00 +12°C° 0 mm 1 m/s 752 mmHg 94%
06:00 +14°C° 0 mm 2 m/s 751 mmHg 89%
07:00 +15°C° 0 mm 2 m/s 751 mmHg 84%
08:00 +17°C° 0 mm 3 m/s 751 mmHg 79%
09:00 +19°C° 0 mm 3 m/s 751 mmHg 72%
10:00 +20°C° 0 mm 3 m/s 751 mmHg 65%
11:00 +22°C° 0 mm 3 m/s 750 mmHg 58%
12:00 +22°C° 0 mm 4 m/s 750 mmHg 56%
13:00 +23°C° 0 mm 4 m/s 749 mmHg 54%
14:00 +23°C° 0 mm 4 m/s 749 mmHg 53%
15:00 +23°C° 0 mm 4 m/s 749 mmHg 57%
16:00 +22°C° 0 mm 3 m/s 748 mmHg 61%
17:00 +22°C° 0 mm 3 m/s 748 mmHg 65%
18:00 +20°C° 0.5 mm 3 m/s 747 mmHg 73%
19:00 +19°C° 0.5 mm 3 m/s 747 mmHg 81%
20:00 +18°C° 0.5 mm 3 m/s 747 mmHg 89%
21:00 +17°C° 1.1 mm 3 m/s 747 mmHg 91%
22:00 +17°C° 1.1 mm 4 m/s 746 mmHg 92%
23:00 +17°C° 1.1 mm 4 m/s 746 mmHg 94%

15 Mai, Sâmbătă

Timp Temperatura Precipitaţii Vânt Presiune Umiditate
00:00 +17°C° 0.1 mm 4 m/s 746 mmHg 95%
01:00 +16°C° 0.1 mm 3 m/s 746 mmHg 96%
02:00 +16°C° 0.1 mm 2 m/s 746 mmHg 97%
03:00 +16°C° 0 mm 2 m/s 746 mmHg 97%
04:00 +16°C° 0 mm 2 m/s 746 mmHg 97%
05:00 +16°C° 0 mm 2 m/s 746 mmHg 97%
06:00 +16°C° 0.5 mm 2 m/s 746 mmHg 95%
07:00 +17°C° 0.5 mm 2 m/s 746 mmHg 94%
08:00 +17°C° 0.5 mm 2 m/s 746 mmHg 93%
09:00 +19°C° 0.1 mm 2 m/s 746 mmHg 84%
10:00 +20°C° 0.1 mm 3 m/s 746 mmHg 75%
11:00 +22°C° 0.1 mm 3 m/s 746 mmHg 66%
12:00 +22°C° 0.1 mm 3 m/s 746 mmHg 65%
13:00 +22°C° 0.1 mm 3 m/s 746 mmHg 65%
14:00 +22°C° 0.1 mm 3 m/s 746 mmHg 64%
15:00 +23°C° 0.3 mm 2 m/s 746 mmHg 69%
16:00 +21°C° 0.3 mm 2 m/s 746 mmHg 74%
17:00 +22°C° 0.3 mm 1 m/s 746 mmHg 78%
18:00 +21°C° 0.3 mm 1 m/s 745 mmHg 82%
19:00 +19°C° 0.3 mm 1 m/s 745 mmHg 86%
20:00 +18°C° 0.3 mm 1 m/s 745 mmHg 90%
21:00 +18°C° 3 mm 1 m/s 744 mmHg 92%
22:00 +16°C° 3 mm 2 m/s 744 mmHg 95%
23:00 +16°C° 3 mm 2 m/s 743 mmHg 97%
Arată mai mult

Formular de consimțământ

Meteoprog și furnizorii noștri de servicii pot stoca și accesa date personale, precum cookies, identificatori de dispozitiv sau alte tehnologii similare pe dispozitivul dumneavoastră și procesa astfel de date pentru a personaliza conținutul și reclamele, dar și pentru a oferi caracteristici de social media și pentru a analiza traficul.

  • Stocarea și/sau accesarea informațiilor pe dispozitivul dumneavoastră

    Cookies, identificatori de dispozitiv sau alte informații pot fi stocate sau accesate pe dispozitiv în scopurile indicate mai sus.

  • Reclame și conținut personalizat, evaluarea reclamelor și a conținutului, informații despre audiențe și dezvoltarea produselor

    Reclamele și conținutul pot fi personalizate pe baza unui profil. Pot fi adăugate date suplimentare pentru a personaliza mai bine reclamele și conținutul. Performanța reclamelor și conținutului poate fi măsurată. Pot fi obținute informații despre utilizatorii care au văzut reclamele și conținutul. Aceste date pot fi utilizate pentru a dezvolta sau îmbunătăți experiența utilizatorilor, sistemele și software-ul.

Dând clic pe ‘Sunt de acord’, permiteți utilizarea cookie-urilor menționate, a identificatorilor de dispozitiv, balizelor web sau altor tehnologii similare. Setările pot fi modificate din browser-ul dispozitivului dumneavoastră.

În anumite scopuri, interesele legitime pot prima asupra consimțământului. Puteți citi mai multe informații în acest sens în Politica privind Confidențialitatea Datelor și Cookie.